Weather History for Puerto Limon, Costa Rica

Change the Weather History Date:

Sunday, December 8, 2013

  Actual Average Record
Temperature  
Mean Temperature 79 °F -  
Max Temperature 87 °F 80 °F 87 °F (2013)
Min Temperature 71 °F 72 °F 69 °F (2010)
Cooling Degree Days 14    
Growing Degree Days 29 (Base 50)    
Moisture  
Dew Point 72 °F    
Average Humidity 82    
Maximum Humidity 94    
Minimum Humidity 54    
Precipitation  
Precipitation 0.63 in 0.50 in - ()
Sea Level Pressure  
Sea Level Pressure 29.92 in    
Wind  
Wind Speed 5 mph ()    
Max Wind Speed 18 mph    
Max Gust Speed 30 mph    
Visibility 6.1 miles    
Events Rain    
Averages and records for this station are not official NWS values.
T = Trace of Precipitation, MM = Missing Value Source: Averaged Metar Reports

Daily Weather History Graph

Daily Weather History Graph

Search for Another Location

Airport:

Trip Planner

Search our weather history database for the weather conditions in past years. The results will help you decide how hot, cold, wet, or windy it might be!

Date:

Astronomy

Dec. 08, 2013 Rise Set
Actual Time 5:37 AM CST 5:11 PM CST
Civil Twilight 5:14 AM CST 5:33 PM CST
Nautical Twilight 4:48 AM CST 6:00 PM CST
Astronomical Twilight 4:22 AM CST 6:26 PM CST
Moon 10:46 AM CST (12/8) 11:03 PM CST (12/8)
Length of Visible Light 12h 19m
Length of Day
11h 33m
Waxing Crescent, 40% of the Moon is Illuminated
Dec 8
Waxing Crescent
Dec 9
First Quarter
Dec 17
Full
Dec 25
Last Quarter
Jan 1
New

Hourly Weather History & Observations

Time (CST) Temp. Heat Index Dew Point Humidity Pressure Visibility Wind Dir Wind Speed Gust Speed Precip Events Conditions
6:00 AM 72 °F - 70 °F 92% 29.92 in 9 mi WSW 3.5 mph - -   Scattered Clouds
6:00 AM 71.6 °F - 69.8 °F 94% 29.91 in 6.2 mi WSW 3.5 mph - N/A   Scattered Clouds
7:00 AM 73.4 °F - 71.6 °F 94% 29.93 in 6.2 mi Calm Calm - N/A   Drizzle
7:10 AM 75.2 °F - 71.6 °F 89% 29.95 in 3.7 mi East 11.5 mph - N/A Rain Heavy Rain
8:00 AM 78.8 °F - 75.2 °F 89% 29.95 in 6.2 mi West 4.6 mph - N/A   Light Drizzle
9:00 AM 79 °F - 73 °F 78% 29.98 in 9 mi SW 4.6 mph - -   Overcast
9:00 AM 78.8 °F - 73.4 °F 83% 29.97 in 6.2 mi SW 4.6 mph - N/A   Scattered Clouds
9:40 AM 78.8 °F - 73.4 °F 83% 29.98 in 1.9 mi ENE 6.9 mph - N/A Rain Heavy Rain
10:00 AM 77.0 °F - 73.4 °F 89% 29.97 in 6.2 mi WNW 2.3 mph - N/A   Drizzle
11:00 AM 77.0 °F - 71.6 °F 83% 29.97 in 1.9 mi NNW 6.9 mph - N/A Rain Heavy Rain
12:00 PM 78 °F - 73 °F 80% 29.94 in 9 mi West 5.8 mph - -   Overcast
12:00 PM 78.8 °F - 73.4 °F 83% 29.92 in 6.2 mi West 5.8 mph - N/A   Mostly Cloudy
1:00 PM 82.4 °F 88.2 °F 73.4 °F 74% 29.89 in 6.2 mi WSW 3.5 mph - N/A   Scattered Clouds
2:00 PM 80.6 °F 84.6 °F 71.6 °F 74% 29.87 in 6.2 mi ESE 18.4 mph 29.9 mph N/A   Scattered Clouds
3:00 PM 83 °F - 69 °F 54% 29.88 in 9 mi SE 4.6 mph - -   Overcast
3:00 PM 82.4 °F 86.3 °F 69.8 °F 66% 29.87 in 6.2 mi SE 4.6 mph - N/A   Mostly Cloudy
4:00 PM 84.2 °F 89.6 °F 71.6 °F 66% 29.87 in 6.2 mi SW 5.8 mph - N/A   Mostly Cloudy
4:40 PM 75.2 °F - 69.8 °F 83% 29.90 in 1.9 mi SSE 15.0 mph 29.9 mph N/A Rain Heavy Rain
5:00 PM 73.4 °F - 69.8 °F 88% 29.89 in 6.2 mi WSW 4.6 mph - N/A   Light Drizzle
6:00 PM 72 °F - 70 °F 92% 29.89 in 9 mi SSW 2.3 mph - -   Haze
6:00 PM 73.4 °F - 69.8 °F 88% 29.89 in 6.2 mi SSW 2.3 mph - N/A   Scattered Clouds